Jackson, KY

12:39 PM EDT on June 29, 2017 (GMT -0400)
Carroll

Weather History for KJKL - June, 2012

Change the Weather History Date:

Sunday, June 24, 2012

  Actual Average Record
Temperature  
Mean Temperature 79 °F 74 °F  
Max Temperature 90 °F 84 °F 92 °F (1988)
Min Temperature 67 °F 65 °F 56 °F (2001)
Degree Days  
Heating Degree Days 0 0  
Month to date heating degree days 12 9  
Since 1 June heating degree days 12 9  
Since 1 July heating degree days 3339 4231  
Cooling Degree Days 14 9  
Month to date cooling degree days 173 166  
Year to date cooling degree days 424 302  
Since 1 June cooling degree days 173 166  
Growing Degree Days 28 (Base 50)    
Moisture  
Dew Point 59 °F    
Average Humidity 54    
Maximum Humidity 73    
Minimum Humidity 34    
Precipitation  
Precipitation 0.00 in 0.15 in 0.63 in (2007)
Month to date precipitation 1.91 3.83  
Year to date precipitation 21.61 24.34  
Snow  
Snow 0.00 in 0.00 in - ()
Month to date snowfall 0.0 0.0  
Since 1 June snowfall 0.0 0.0  
Since 1 July snowfall 14.2 23.5  
Snow Depth 0.00 in    
Sea Level Pressure  
Sea Level Pressure 29.96 in    
Wind  
Wind Speed 0 mph (East)    
Max Wind Speed 7 mph    
Max Gust Speed 12 mph    
Visibility 10 miles    
Events      
T = Trace of Precipitation, MM = Missing Value Source: NWS Daily Summary

Daily Weather History Graph

Daily Weather History Graph

Search for Another Location

Airport or City:

Trip Planner

Search our weather history database for the weather conditions in past years. The results will help you decide how hot, cold, wet, or windy it might be!

Date:

Astronomy

Jun. 24, 2012 Rise Set
Actual Time 6:13 AM EDT 8:58 PM EDT
Civil Twilight 5:41 AM EDT 9:29 PM EDT
Nautical Twilight 5:02 AM EDT 10:08 PM EDT
Astronomical Twilight 4:18 AM EDT 10:52 PM EDT
Moon 11:11 AM EDT (6/24) No Moon Set
Length of Visible Light 15h 47m
Length of Day
14h 45m
Waxing Crescent, 24% of the Moon is Illuminated
Jun 24
Waxing Crescent
Jun 26
First Quarter
Jul 3
Full
Jul 10
Last Quarter
Jul 19
New

Hourly Weather History & Observations

Time (EDT) Temp. Heat Index Dew Point Humidity Pressure Visibility Wind Dir Wind Speed Gust Speed Precip Events Conditions
12:53 AM 73.9 °F - 55.9 °F 53% 30.01 in 10.0 mi Calm Calm - N/A   Clear
1:53 AM 73.0 °F - 57.0 °F 57% 30.00 in 10.0 mi Calm Calm - N/A   Clear
2:53 AM 71.1 °F - 57.9 °F 63% 30.00 in 10.0 mi Calm Calm - N/A   Clear
3:53 AM 70.0 °F - 57.9 °F 65% 29.99 in 10.0 mi East 3.5 mph - N/A   Clear
4:53 AM 69.1 °F - 57.9 °F 68% 29.98 in 10.0 mi Calm Calm - N/A   Clear
5:53 AM 68.0 °F - 57.9 °F 70% 29.98 in 10.0 mi Calm Calm - N/A   Clear
6:53 AM 68.0 °F - 57.9 °F 70% 29.99 in 10.0 mi Calm Calm - N/A   Clear
7:53 AM 70.0 °F - 60.1 °F 71% 29.99 in 10.0 mi Calm Calm - N/A   Clear
8:53 AM 73.9 °F - 62.1 °F 66% 30.00 in 10.0 mi Calm Calm - N/A   Clear
9:53 AM 78.1 °F - 62.1 °F 58% 30.00 in 10.0 mi Calm Calm - N/A   Clear
10:53 AM 82.0 °F 83.4 °F 64.0 °F 54% 29.99 in 10.0 mi Calm Calm - N/A   Clear
11:53 AM 84.0 °F 83.0 °F 55.9 °F 38% 29.99 in 10.0 mi Calm Calm - N/A   Clear
12:53 PM 87.1 °F 86.1 °F 57.9 °F 37% 29.98 in 10.0 mi Calm Calm - N/A   Partly Cloudy
1:53 PM 87.1 °F 85.7 °F 55.9 °F 35% 29.96 in 10.0 mi Variable 5.8 mph - N/A   Clear
2:53 PM 87.1 °F 85.7 °F 55.9 °F 35% 29.94 in 10.0 mi Calm Calm - N/A   Clear
3:53 PM 88.0 °F 87.6 °F 60.1 °F 39% 29.93 in 10.0 mi Calm Calm - N/A   Clear
4:53 PM 89.1 °F 88.8 °F 60.1 °F 38% 29.91 in 10.0 mi Calm Calm - N/A   Clear
5:53 PM 86.0 °F 85.7 °F 60.1 °F 41% 29.91 in 10.0 mi Calm Calm - N/A   Clear
6:53 PM 86.0 °F 86.1 °F 61.0 °F 43% 29.90 in 10.0 mi Calm Calm - N/A   Clear
7:53 PM 82.0 °F 83.0 °F 62.1 °F 51% 29.90 in 10.0 mi Calm Calm - N/A   Clear
8:53 PM 79.0 °F - 59.0 °F 50% 29.90 in 10.0 mi Calm Calm - N/A   Clear
9:53 PM 77.0 °F - 57.9 °F 52% 29.90 in 10.0 mi Calm Calm - N/A   Clear
10:53 PM 77.0 °F - 57.9 °F 52% 29.90 in 10.0 mi Calm Calm - N/A   Clear
11:53 PM 78.8 °F - 57.2 °F 47% 29.96 in 10.0 mi Calm Calm - N/A   Clear